Погода Сангары

Погода Сангары : погода сейчас, прогноз погоды и архив. Всё, что Вы хотите узнать о погоде Сангары!

Хотите узнать прогноз погоды Сангары? Тогда Вам сюда: Погода Сангары

Поиск расширенной информации на нашем сайте:

Другие новости

Новости СМИ2

Главная страница сайта

Новости сайта

03.07.2017

Напоминаем, что на нашем специализированном сайте Метеоцентр.Азия вы можете получить высокодетализированные автоматические прогнозы погоды по пунктам России, СНГ и мира в авиационном формате (включающие направление и скорость ветра, видимость, явления погоды, количество и форму облачности, нижнюю и верхнюю границу облачности).

Рекомендуем: лесные жители белфакс

Погода Сангары - сегодня

Время (UTC), дата Ветер
(°,м/с) 
Видим.   Явления Облачность Т
(°С)
Тd
(°С)
f(%) Тe
(°С)
Pmin
(гПа)
dP
(гПа)
Po
(мм)
O2
(г/м3)
Тmin Tmax R s Состояние
почвы
21 14.10.18 040 (СВ) 10 км    10/10 120 м 
[St]
-6.7 -7.6 93 -6  1031.5  0.5  764  316           
03 15.10.18 тихо ()   10 км    10/10 180 м 
[St]
-5.6 -7 90 -6  1031.9  0.1  765  315           
06 15.10.18 тихо ()   20000 м    10/10 210 м 
[St]
-5.6 -7.8 84 -6  1031.8  -0.1  764  315           
09 15.10.18 080 (В) 10 км    10/10 150 м 
[St]
-5.8 -7.6 87 -5  1031.8  764  316           
12 15.10.18 110 (В) 10 км    10/10 210 м 
[St]
-6.4 -7.2 94 -6  1031.8  765  316           
15 15.10.18 тихо ()   10 км    10/10 210 м 
[St]
-6 -7.5 89 -6  1031.5  -0.4  764  316           
18 15.10.18 080 (В) 10 км    10/10 180 м 
[St]
-6.3 -7.5 91 -6  1030.7  -0.8  764  316           
21 15.10.18 080 (В) 10 км    10/10 180 м 
[St]
-6.8 -7.7 93 -8  1030  -0.8  763  316           
00 16.10.18 070 (В) 10 км    10/10 180 м 
[St]
-7 -7.9 93 -8  1028.7  -1.3  762  316  -7.3      равномерный
сухой снег
100% 
03 16.10.18 080 (В) 10 км    10/10 180 м 
[St]
-5.5 -6.9 90 -7  1027.2  1.4  761  314           
06 16.10.18 090 (В) 20000 м    10/10 210 м 
[St]
-4.7 -6.7 86 -8  1024.9  -2.2  759  312           
09 16.10.18 100 (В) 10 км    10/10 180 м 
[St]
-5.6 -7 90 -10  1024.1  -0.8  759  313           
12 16.10.18 140 (ЮВ) 10 км    10/10 210 м 
[St]
-6.4 -7.6 91 -10  1023.3  -0.9  758  314    -4.4       
03 17.10.18 110 (В) 10 км  слаб. ливневой снег  10/6 300 м средняя 
[Frnb|As trans]
-5.6 -7.4 87 -7  1022.3  757  312           
06 17.10.18 120 (ЮВ) 10 км  слаб. ливневой снег  10/6 300 м средняя 
[Frnb|As trans]
-5.2 -6.6 90 -7  1021.9  -0.4  757  312           
15 17.10.18 050 (СВ) 10 км    10/10 270 м 
[St]
-6.4 -7.6 91 -6  1021.2  -0.5  757  313           
18 17.10.18 050 (СВ) 10 км    10/10 300 м 
[St]
-5.5 -7.4 86 -5  1020.6  -0.6  756  312           
21 17.10.18 050 (СВ) 10 км    8/8 210 м 
[St]
-7 -7.9 93 -7  1020.4  -0.2  756  313           
00 18.10.18 260 (З) 20000 м    8/8 210 м 
[St]
-5.8 -7.3 89 -7  1019.9  -0.4  756  312  -9.5      равномерный
сухой снег
100% 
03 18.10.18 280 (З) 10 км    10/10 100 м 
[St]
-4.7 -6.3 89 -6  1019.9  756  310           
06 18.10.18 260 (З) 20000 м    9/9 210 м 
[St]
-5 -6.3 91 -6  1019.6  -0.2  755  311           
09 18.10.18 240 (ЮЗ) 10 км    ясно 
-5.8 -7.3 89 -5  1019.4  -0.2  755  312           
15 18.10.18 070 (В) 10 км    ясно 
-9 -10.1 92 -11  1019.1  -0.5  755  316           
18 18.10.18 070 (В) 10 км    9/0 средняя 
[Ac und]
-7.9 -8.5 95 -9  1017.8  -1.2  754  314           
21 18.10.18 060 (СВ) 10 км    9/0 средняя 
[Ac und]
-7.6 -8.2 95 -9  1016.6  -1.2  753  313           
Время (UTC), дата Ветер
(°,м/с) 
Видим.   Явления Облачность Т
(°С)
Тd
(°С)
f(%) Тe
(°С)
Pmin
(гПа)
dP
(гПа)
Po
(мм)
O2
(г/м3)
Тmin Tmax R s Состояние
почвы

Для получения пояснительной информации подведите курсор к названию столбца.

ПОГОДА Сангары - архив

Всё, что Вы хотите узнать о погоде Сангары - удобно и подробно!

Выберите нужную дату (начиная с 1 января 2015* года) и нажмите кнопку "Найти".
Будут отображены архивные сводки погоды по пункту Сангары, начиная с указанной даты.


Отображать данные в формате CSV (для использования в таблицах Excel)


Внимание! Наш архив погоды предназначен исключительно для личного некоммерческого использования в познавательных целях. Если Вам необходимы официальные справки о состоянии погоды (для производственных, юридических, коммерческих и т.п. целей), обращайтесь в органы Росгидромета.

*Примечание: данная дата относится к архиву по метеостанциям СССР (Россия, СНГ, Балтия).
Архив по метеостанциям Зарубежной Европы и Азии (кроме Китая) хранится 10 дней, по другим регионам земного шара (Китай, Африка, Америка, Австралия, Океания) - 1 день.

Сангары - район местоположения метеостанции


Название, широта, долгота, высота метеостанции:
Сангары 64°ш. 127.5°д. 96 м над ур. моря [Российская Федерация]

Дополнительная информация

В oтличие oт бoльшинства пoгoдных сайтoв мы публикуем пoдрoбную метеoинфoрмацию в детальнoм прoфессиoнальнoм фoрмате.

Характеристики температуры и влажнoсти вoздуха измеряются на высoте 2 м в тени вдали oт зданий и деревьев.
Скoрoсть ветра измеряется на высoте 10 м (на урoвне рoста челoвека скoрoсть ветра ниже в 1.5-2 раза). Если метеoстанция нахoдится в гoрoде или в лесу, тo скoрoсть ветра занижена на 2-4 м/с пo сравнению с oткрытым местoм. Скoрoсть ветра над акватoриями крупных рек и oзёр, а также на вершинах хoлмoв на 2-5 м/с выше, чем в oбычных услoвиях.
Атмoсфернoе давление в разных тoчках местнoсти мoжет значительнo oтличаться oт давления на метеoстанции, в зависимoсти oт услoвий рельефа (при пoдъёме на 10 м давление пoнижается примернo на 1 мм рт.ст.).